Time,TemperatureF,DewpointF,PressureIn,WindDirection,WindDirectionDegrees,WindSpeedMPH,WindSpeedGustMPH,Humidity,HourlyPrecipIn,Conditions,Clouds,dailyrainin,SoftwareType,DateUTC
2013-07-25 00:00:00,70.1,68.0,29.75,ESE,114,0.0,16.0,93,0.00,,,0.00,Wunderground v.1.15,2013-07-25 04:00:00,
2013-07-25 00:05:00,69.8,67.7,29.75,ESE,114,0.0,16.0,93,0.00,,,0.00,Wunderground v.1.15,2013-07-25 04:05:00,
2013-07-25 00:10:00,69.7,67.9,29.75,ESE,114,0.0,16.0,94,0.00,,,0.00,Wunderground v.1.15,2013-07-25 04:10:00,
2013-07-25 00:20:00,69.6,67.8,29.75,ESE,114,0.0,16.0,94,0.00,,,0.00,Wunderground v.1.15,2013-07-25 04:20:00,
2013-07-25 00:25:00,69.5,67.7,29.75,ESE,114,0.0,16.0,94,0.00,,,0.00,Wunderground v.1.15,2013-07-25 04:25:00,
2013-07-25 00:35:00,69.3,67.5,29.75,ESE,114,0.0,16.0,94,0.00,,,0.00,Wunderground v.1.15,2013-07-25 04:35:00,
2013-07-25 00:40:00,69.4,67.9,29.75,ESE,114,0.0,16.0,95,0.00,,,0.00,Wunderground v.1.15,2013-07-25 04:40:00,
2013-07-25 00:50:00,69.6,67.8,29.75,ESE,114,0.0,16.0,94,0.00,,,0.00,Wunderground v.1.15,2013-07-25 04:50:00,
2013-07-25 00:55:00,69.6,67.8,29.75,ESE,114,0.0,16.0,94,0.00,,,0.00,Wunderground v.1.15,2013-07-25 04:55:00,
2013-07-25 01:00:00,69.6,67.8,29.75,ESE,114,0.0,16.0,94,0.00,,,0.00,Wunderground v.1.15,2013-07-25 05:00:00,
2013-07-25 01:10:00,69.5,67.7,29.75,ESE,114,0.0,16.0,94,0.00,,,0.00,Wunderground v.1.15,2013-07-25 05:10:00,
2013-07-25 01:20:00,69.7,67.9,29.75,ESE,114,0.0,16.0,94,0.00,,,0.00,Wunderground v.1.15,2013-07-25 05:20:00,
2013-07-25 01:30:00,69.9,67.8,29.75,ESE,114,0.0,16.0,93,0.00,,,0.00,Wunderground v.1.15,2013-07-25 05:30:00,
2013-07-25 01:40:00,69.8,68.0,29.75,ESE,114,0.0,16.0,94,0.00,,,0.00,Wunderground v.1.15,2013-07-25 05:40:00,
2013-07-25 01:45:00,69.8,68.0,29.74,ESE,114,0.0,16.0,94,0.00,,,0.00,Wunderground v.1.15,2013-07-25 05:45:00,
2013-07-25 01:55:00,69.7,67.9,29.75,ESE,114,0.0,16.0,94,0.00,,,0.00,Wunderground v.1.15,2013-07-25 05:55:00,
2013-07-25 02:05:00,69.7,67.9,29.75,ESE,114,0.0,16.0,94,0.00,,,0.00,Wunderground v.1.15,2013-07-25 06:05:00,
2013-07-25 02:15:00,69.7,67.9,29.75,ESE,114,0.0,16.0,94,0.00,,,0.00,Wunderground v.1.15,2013-07-25 06:15:00,
2013-07-25 02:25:00,69.6,67.8,29.74,ESE,114,0.0,16.0,94,0.00,,,0.00,Wunderground v.1.15,2013-07-25 06:25:00,
2013-07-25 02:35:00,69.5,68.0,29.74,ESE,114,0.0,16.0,95,0.00,,,0.00,Wunderground v.1.15,2013-07-25 06:35:00,
2013-07-25 02:45:00,69.3,67.5,29.75,SE,134,0.0,16.0,94,0.00,,,0.00,Wunderground v.1.15,2013-07-25 06:45:00,
2013-07-25 02:50:00,69.3,67.5,29.74,SE,135,0.0,16.0,94,0.00,,,0.00,Wunderground v.1.15,2013-07-25 06:50:00,
2013-07-25 03:00:00,69.3,67.5,29.74,SE,134,0.0,16.0,94,0.00,,,0.00,Wunderground v.1.15,2013-07-25 07:00:00,
2013-07-25 03:10:00,69.3,67.5,29.74,SE,134,0.0,16.0,94,0.00,,,0.00,Wunderground v.1.15,2013-07-25 07:10:00,
2013-07-25 03:20:00,69.3,67.5,29.74,SE,134,0.0,16.0,94,0.00,,,0.00,Wunderground v.1.15,2013-07-25 07:20:00,
2013-07-25 03:30:00,69.4,67.6,29.74,SE,134,0.0,16.0,94,0.00,,,0.00,Wunderground v.1.15,2013-07-25 07:30:00,
2013-07-25 03:40:00,69.4,67.6,29.74,SE,133,0.0,16.0,94,0.00,,,0.00,Wunderground v.1.15,2013-07-25 07:40:00,
2013-07-25 03:50:00,69.5,67.4,29.73,SE,133,0.0,16.0,93,0.00,,,0.00,Wunderground v.1.15,2013-07-25 07:50:00,
2013-07-25 04:00:00,69.2,67.4,29.74,SE,133,0.0,16.0,94,0.00,,,0.00,Wunderground v.1.15,2013-07-25 08:00:00,
2013-07-25 04:10:00,68.9,67.1,29.74,SE,133,0.0,16.0,94,0.00,,,0.00,Wunderground v.1.15,2013-07-25 08:10:00,
2013-07-25 04:15:00,68.8,67.0,29.74,SE,133,0.0,16.0,94,0.00,,,0.00,Wunderground v.1.15,2013-07-25 08:15:00,
2013-07-25 04:25:00,68.5,66.7,29.74,SE,133,0.0,16.0,94,0.00,,,0.00,Wunderground v.1.15,2013-07-25 08:25:00,
2013-07-25 04:35:00,68.3,66.5,29.74,SE,133,0.0,16.0,94,0.00,,,0.00,Wunderground v.1.15,2013-07-25 08:35:00,
2013-07-25 04:45:00,68.0,66.5,29.74,SE,133,0.0,16.0,95,0.00,,,0.00,Wunderground v.1.15,2013-07-25 08:45:00,
2013-07-25 04:55:00,67.7,65.9,29.74,SE,133,0.0,16.0,94,0.00,,,0.01,Wunderground v.1.15,2013-07-25 08:55:00,
2013-07-25 05:05:00,67.6,66.1,29.74,SE,133,0.0,16.0,95,0.00,,,0.01,Wunderground v.1.15,2013-07-25 09:05:00,
2013-07-25 05:15:00,67.3,65.8,29.74,SE,133,0.0,16.0,95,0.00,,,0.01,Wunderground v.1.15,2013-07-25 09:15:00,
2013-07-25 05:25:00,66.9,65.4,29.75,SE,133,0.0,16.0,95,0.00,,,0.01,Wunderground v.1.15,2013-07-25 09:25:00,
2013-07-25 05:35:00,66.9,65.4,29.75,SE,133,0.0,16.0,95,0.00,,,0.01,Wunderground v.1.15,2013-07-25 09:35:00,
2013-07-25 05:40:00,66.8,65.3,29.76,SE,133,0.0,16.0,95,0.00,,,0.01,Wunderground v.1.15,2013-07-25 09:40:00,
2013-07-25 05:50:00,66.7,65.2,29.76,SE,133,0.0,16.0,95,0.00,,,0.01,Wunderground v.1.15,2013-07-25 09:50:00,
2013-07-25 06:00:00,66.8,65.3,29.76,East,99,0.0,16.0,95,0.00,,,0.01,Wunderground v.1.15,2013-07-25 10:00:00,
2013-07-25 06:10:00,66.6,64.8,29.77,East,99,0.0,16.0,94,0.00,,,0.01,Wunderground v.1.15,2013-07-25 10:10:00,
2013-07-25 06:20:00,66.5,65.0,29.77,East,99,0.0,16.0,95,0.00,,,0.01,Wunderground v.1.15,2013-07-25 10:20:00,
2013-07-25 06:30:00,66.4,64.9,29.77,East,99,0.0,16.0,95,0.00,,,0.01,Wunderground v.1.15,2013-07-25 10:30:00,
2013-07-25 06:40:00,66.5,65.0,29.78,East,99,0.0,16.0,95,0.00,,,0.01,Wunderground v.1.15,2013-07-25 10:40:00,
2013-07-25 06:50:00,66.5,65.0,29.79,East,99,0.0,16.0,95,0.00,,,0.01,Wunderground v.1.15,2013-07-25 10:50:00,
2013-07-25 07:00:00,66.5,65.0,29.79,ESE,107,1.0,1.0,95,0.00,,,0.01,Wunderground v.1.15,2013-07-25 11:00:00,
2013-07-25 07:05:00,66.5,65.0,29.79,ESE,107,0.0,16.0,95,0.00,,,0.01,Wunderground v.1.15,2013-07-25 11:05:00,
2013-07-25 07:15:00,66.6,65.1,29.79,ESE,107,0.0,16.0,95,0.00,,,0.01,Wunderground v.1.15,2013-07-25 11:15:00,
2013-07-25 07:25:00,66.9,65.4,29.79,ESE,107,0.0,16.0,95,0.00,,,0.01,Wunderground v.1.15,2013-07-25 11:25:00,
2013-07-25 07:35:00,67.2,65.4,29.79,ESE,107,0.0,16.0,94,0.00,,,0.01,Wunderground v.1.15,2013-07-25 11:35:00,
2013-07-25 07:45:00,67.6,65.5,29.80,East,87,0.0,16.0,93,0.00,,,0.01,Wunderground v.1.15,2013-07-25 11:45:00,
2013-07-25 07:55:00,68.1,66.0,29.80,East,88,0.0,16.0,93,0.00,,,0.01,Wunderground v.1.15,2013-07-25 11:55:00,
2013-07-25 08:00:00,68.3,65.9,29.80,East,87,0.0,0.0,92,0.00,,,0.01,Wunderground v.1.15,2013-07-25 12:00:00,
2013-07-25 08:10:00,68.6,66.2,29.81,East,87,0.0,0.0,92,0.00,,,0.01,Wunderground v.1.15,2013-07-25 12:10:00,
2013-07-25 08:15:00,68.8,66.4,29.81,East,87,0.0,0.0,92,0.00,,,0.01,Wunderground v.1.15,2013-07-25 12:15:00,
2013-07-25 08:25:00,69.0,65.9,29.81,East,87,0.0,0.0,90,0.00,,,0.01,Wunderground v.1.15,2013-07-25 12:25:00,
2013-07-25 08:35:00,69.3,65.9,29.81,East,96,0.0,0.0,89,0.00,,,0.01,Wunderground v.1.15,2013-07-25 12:35:00,
2013-07-25 08:40:00,69.5,66.1,29.81,ENE,74,0.0,0.0,89,0.00,,,0.01,Wunderground v.1.15,2013-07-25 12:40:00,
2013-07-25 08:45:00,69.6,65.9,29.82,SSW,212,0.0,0.0,88,0.00,,,0.01,Wunderground v.1.15,2013-07-25 12:45:00,
2013-07-25 08:55:00,69.7,66.0,29.82,SSE,168,0.0,0.0,88,0.00,,,0.01,Wunderground v.1.15,2013-07-25 12:55:00,
2013-07-25 09:01:00,69.8,66.1,29.83,SSW,213,0.0,0.0,88,0.00,,,0.01,Wunderground v.1.15,2013-07-25 13:01:00,
2013-07-25 09:10:00,70.1,66.7,29.83,South,189,0.0,0.0,89,0.00,,,0.01,Wunderground v.1.15,2013-07-25 13:10:00,
2013-07-25 09:20:00,70.4,66.3,29.83,SW,218,0.0,0.0,87,0.00,,,0.01,Wunderground v.1.15,2013-07-25 13:20:00,
2013-07-25 09:30:00,70.5,66.8,29.83,SSW,207,0.0,0.0,88,0.00,,,0.01,Wunderground v.1.15,2013-07-25 13:30:00,
2013-07-25 09:40:00,71.2,66.8,29.83,SSW,194,0.0,0.0,86,0.00,,,0.01,Wunderground v.1.15,2013-07-25 13:40:00,
2013-07-25 09:50:00,71.9,67.5,29.82,SSW,195,0.0,0.0,86,0.00,,,0.01,Wunderground v.1.15,2013-07-25 13:50:00,
2013-07-25 10:00:00,72.5,67.7,29.83,SSW,192,0.0,0.0,85,0.00,,,0.01,Wunderground v.1.15,2013-07-25 14:00:00,
2013-07-25 10:10:00,73.1,68.0,29.82,SSW,196,0.0,0.0,84,0.00,,,0.01,Wunderground v.1.15,2013-07-25 14:10:00,
2013-07-25 10:20:00,74.2,68.7,29.83,SSW,203,0.0,0.0,83,0.00,,,0.01,Wunderground v.1.15,2013-07-25 14:20:00,
2013-07-25 10:30:00,74.9,68.3,29.83,East,98,0.0,0.0,80,0.00,,,0.01,Wunderground v.1.15,2013-07-25 14:30:00,
2013-07-25 10:40:00,75.6,69.0,29.83,East,98,0.0,0.0,80,0.00,,,0.01,Wunderground v.1.15,2013-07-25 14:40:00,
2013-07-25 10:50:00,75.9,68.9,29.82,SSW,198,0.0,0.0,79,0.00,,,0.01,Wunderground v.1.15,2013-07-25 14:50:00,
2013-07-25 11:00:00,75.8,68.4,29.83,SSW,194,0.0,0.0,78,0.00,,,0.01,Wunderground v.1.15,2013-07-25 15:00:00,
2013-07-25 11:10:00,75.9,68.5,29.82,East,95,0.0,0.0,78,0.00,,,0.01,Wunderground v.1.15,2013-07-25 15:10:00,
2013-07-25 11:20:00,75.5,67.8,29.82,SSW,192,1.0,1.0,77,0.00,,,0.01,Wunderground v.1.15,2013-07-25 15:20:00,
2013-07-25 11:30:00,75.9,67.8,29.82,SW,225,1.0,1.0,76,0.00,,,0.01,Wunderground v.1.15,2013-07-25 15:30:00,
2013-07-25 11:35:00,76.6,69.2,29.83,SSW,211,1.0,1.0,78,0.00,,,0.01,Wunderground v.1.15,2013-07-25 15:35:00,
2013-07-25 11:45:00,76.4,68.3,29.83,SSW,194,2.0,4.0,76,0.00,,,0.01,Wunderground v.1.15,2013-07-25 15:45:00,
2013-07-25 11:55:00,77.2,69.0,29.83,West,261,0.0,2.0,76,0.00,,,0.01,Wunderground v.1.15,2013-07-25 15:55:00,
2013-07-25 12:00:00,77.8,69.2,29.83,South,186,0.0,0.0,75,0.00,,,0.01,Wunderground v.1.15,2013-07-25 16:00:00,
2013-07-25 12:10:00,78.0,69.4,29.83,SSW,204,3.0,3.0,75,0.00,,,0.01,Wunderground v.1.15,2013-07-25 16:10:00,
2013-07-25 12:20:00,78.3,69.7,29.83,SSW,207,3.0,5.0,75,0.00,,,0.01,Wunderground v.1.15,2013-07-25 16:20:00,
2013-07-25 12:25:00,78.3,69.7,29.83,West,275,3.0,5.0,75,0.00,,,0.01,Wunderground v.1.15,2013-07-25 16:25:00,
2013-07-25 12:35:00,78.7,70.1,29.83,SSW,194,4.0,7.0,75,0.00,,,0.01,Wunderground v.1.15,2013-07-25 16:35:00,
2013-07-25 12:45:00,79.5,69.7,29.83,SSW,192,0.0,8.0,72,0.00,,,0.01,Wunderground v.1.15,2013-07-25 16:45:00,
2013-07-25 12:55:00,79.5,69.7,29.83,South,186,5.0,5.0,72,0.00,,,0.01,Wunderground v.1.15,2013-07-25 16:55:00,
2013-07-25 13:00:00,79.0,68.0,29.83,SSW,202,3.0,3.0,69,0.00,,,0.01,Wunderground v.1.15,2013-07-25 17:00:00,
2013-07-25 13:10:00,78.9,68.7,29.83,West,265,2.0,2.0,71,0.00,,,0.01,Wunderground v.1.15,2013-07-25 17:10:00,
2013-07-25 13:15:00,78.8,68.2,29.83,SSW,205,1.0,2.0,70,0.00,,,0.01,Wunderground v.1.15,2013-07-25 17:15:00,
2013-07-25 13:25:00,79.2,68.6,29.83,SW,215,0.0,0.0,70,0.00,,,0.01,Wunderground v.1.15,2013-07-25 17:25:00,
2013-07-25 13:35:00,79.8,69.6,29.83,SSW,194,3.0,4.0,71,0.00,,,0.01,Wunderground v.1.15,2013-07-25 17:35:00,
2013-07-25 13:45:00,80.8,69.7,29.82,SSW,193,0.0,5.0,69,0.00,,,0.01,Wunderground v.1.15,2013-07-25 17:45:00,
2013-07-25 13:55:00,81.1,69.5,29.82,SSW,202,5.0,7.0,68,0.00,,,0.01,Wunderground v.1.15,2013-07-25 17:55:00,
2013-07-25 14:01:00,81.4,68.9,29.82,South,186,2.0,4.0,66,0.00,,,0.01,Wunderground v.1.15,2013-07-25 18:01:00,
2013-07-25 14:10:00,81.0,68.6,29.82,SSW,201,1.0,1.0,66,0.00,,,0.01,Wunderground v.1.15,2013-07-25 18:10:00,
2013-07-25 14:20:00,80.7,69.2,29.82,West,272,0.0,0.0,68,0.00,,,0.01,Wunderground v.1.15,2013-07-25 18:20:00,
2013-07-25 14:30:00,81.1,70.8,29.82,SSW,211,0.0,0.0,71,0.00,,,0.01,Wunderground v.1.15,2013-07-25 18:30:00,
2013-07-25 14:40:00,81.5,69.5,29.82,SSW,200,5.0,5.0,67,0.00,,,0.01,Wunderground v.1.15,2013-07-25 18:40:00,
2013-07-25 14:50:00,81.1,69.1,29.81,SSW,209,6.0,6.0,67,0.00,,,0.01,Wunderground v.1.15,2013-07-25 18:50:00,
2013-07-25 15:00:00,80.1,69.0,29.81,SSW,196,4.0,8.0,69,0.00,,,0.01,Wunderground v.1.15,2013-07-25 19:00:00,
2013-07-25 15:10:00,79.9,68.4,29.82,SW,214,4.0,6.0,68,0.00,,,0.01,Wunderground v.1.15,2013-07-25 19:10:00,
2013-07-25 15:20:00,81.0,69.9,29.82,SSW,205,4.0,5.0,69,0.00,,,0.01,Wunderground v.1.15,2013-07-25 19:20:00,
2013-07-25 15:30:00,80.8,68.4,29.82,SW,236,1.0,1.0,66,0.00,,,0.01,Wunderground v.1.15,2013-07-25 19:30:00,
2013-07-25 15:40:00,79.9,68.4,29.82,West,263,0.0,0.0,68,0.00,,,0.01,Wunderground v.1.15,2013-07-25 19:40:00,
2013-07-25 15:45:00,79.5,68.4,29.82,West,263,0.0,0.0,69,0.00,,,0.01,Wunderground v.1.15,2013-07-25 19:45:00,
2013-07-25 15:55:00,78.9,69.9,29.82,West,263,0.0,0.0,74,0.00,,,0.01,Wunderground v.1.15,2013-07-25 19:55:00,
2013-07-25 16:00:00,78.6,70.0,29.82,West,263,0.0,0.0,75,0.00,,,0.01,Wunderground v.1.15,2013-07-25 20:00:00,
2013-07-25 16:10:00,78.2,70.0,29.82,West,263,0.0,0.0,76,0.00,,,0.01,Wunderground v.1.15,2013-07-25 20:10:00,
2013-07-25 16:15:00,78.0,69.8,29.82,West,263,0.0,0.0,76,0.00,,,0.01,Wunderground v.1.15,2013-07-25 20:15:00,
2013-07-25 16:25:00,77.7,69.9,29.81,West,263,0.0,0.0,77,0.00,,,0.01,Wunderground v.1.15,2013-07-25 20:25:00,
2013-07-25 16:35:00,77.4,70.4,29.82,West,263,0.0,0.0,79,0.00,,,0.01,Wunderground v.1.15,2013-07-25 20:35:00,
2013-07-25 16:45:00,77.6,70.2,29.82,West,263,0.0,0.0,78,0.00,,,0.01,Wunderground v.1.15,2013-07-25 20:45:00,
2013-07-25 16:55:00,79.2,69.8,29.81,SW,215,1.0,5.0,73,0.00,,,0.01,Wunderground v.1.15,2013-07-25 20:55:00,
2013-07-25 17:00:00,79.6,69.8,29.82,SW,220,3.0,3.0,72,0.00,,,0.01,Wunderground v.1.15,2013-07-25 21:00:00,
2013-07-25 17:10:00,80.0,69.3,29.81,SW,217,3.0,8.0,70,0.00,,,0.01,Wunderground v.1.15,2013-07-25 21:10:00,
2013-07-25 17:20:00,80.0,69.3,29.81,South,188,4.0,4.0,70,0.00,,,0.01,Wunderground v.1.15,2013-07-25 21:20:00,
2013-07-25 17:25:00,80.2,69.1,29.81,SSW,198,3.0,4.0,69,0.00,,,0.01,Wunderground v.1.15,2013-07-25 21:25:00,
2013-07-25 17:35:00,80.7,69.6,29.82,SSW,198,1.0,2.0,69,0.00,,,0.01,Wunderground v.1.15,2013-07-25 21:35:00,
2013-07-25 17:45:00,80.8,69.7,29.82,SSW,198,2.0,5.0,69,0.00,,,0.01,Wunderground v.1.15,2013-07-25 21:45:00,
2013-07-25 17:55:00,80.3,69.2,29.82,SSW,211,5.0,8.0,69,0.00,,,0.01,Wunderground v.1.15,2013-07-25 21:55:00,
2013-07-25 18:05:00,80.2,69.1,29.83,SSW,209,2.0,9.0,69,0.00,,,0.01,Wunderground v.1.15,2013-07-25 22:05:00,
2013-07-25 18:15:00,80.0,69.3,29.83,SSW,209,0.0,9.0,70,0.00,,,0.01,Wunderground v.1.15,2013-07-25 22:15:00,
2013-07-25 18:25:00,79.8,69.1,29.83,SSW,209,0.0,9.0,70,0.00,,,0.01,Wunderground v.1.15,2013-07-25 22:25:00,
2013-07-25 18:30:00,79.6,69.0,29.83,SSW,210,0.0,9.0,70,0.00,,,0.01,Wunderground v.1.15,2013-07-25 22:30:00,
2013-07-25 18:40:00,79.9,69.7,29.83,SSW,210,0.0,9.0,71,0.00,,,0.01,Wunderground v.1.15,2013-07-25 22:40:00,
2013-07-25 18:50:00,80.1,69.0,29.83,SSW,210,0.0,9.0,69,0.00,,,0.01,Wunderground v.1.15,2013-07-25 22:50:00,
2013-07-25 19:00:00,79.9,69.7,29.83,SSW,210,0.0,9.0,71,0.00,,,0.01,Wunderground v.1.15,2013-07-25 23:00:00,
2013-07-25 19:10:00,79.7,70.3,29.83,SSW,210,0.0,9.0,73,0.00,,,0.01,Wunderground v.1.15,2013-07-25 23:10:00,
2013-07-25 19:20:00,79.7,69.9,29.84,SSW,210,0.0,9.0,72,0.00,,,0.01,Wunderground v.1.15,2013-07-25 23:20:00,
2013-07-25 19:30:00,79.6,69.8,29.84,SSW,210,0.0,9.0,72,0.00,,,0.01,Wunderground v.1.15,2013-07-25 23:30:00,
2013-07-25 19:40:00,79.4,70.4,29.84,SSW,210,0.0,9.0,74,0.00,,,0.01,Wunderground v.1.15,2013-07-25 23:40:00,
2013-07-25 19:50:00,79.1,70.5,29.85,SSW,210,0.0,9.0,75,0.00,,,0.01,Wunderground v.1.15,2013-07-25 23:50:00,
2013-07-25 19:55:00,78.2,71.2,29.85,SSW,210,0.0,9.0,79,0.00,,,0.01,Wunderground v.1.15,2013-07-25 23:55:00,
2013-07-25 20:05:00,77.0,71.1,29.85,SSW,210,0.0,9.0,82,0.00,,,0.01,Wunderground v.1.15,2013-07-26 00:05:00,
2013-07-25 20:15:00,76.6,71.0,29.85,SSW,210,0.0,9.0,83,0.00,,,0.01,Wunderground v.1.15,2013-07-26 00:15:00,
2013-07-25 20:25:00,75.8,70.3,29.86,SSW,208,0.0,9.0,83,0.00,,,0.01,Wunderground v.1.15,2013-07-26 00:25:00,
2013-07-25 20:35:00,75.0,69.8,29.86,SSW,208,0.0,9.0,84,0.00,,,0.01,Wunderground v.1.15,2013-07-26 00:35:00,
2013-07-25 20:45:00,74.4,69.2,29.85,SSW,208,0.0,9.0,84,0.00,,,0.01,Wunderground v.1.15,2013-07-26 00:45:00,
2013-07-25 20:55:00,74.0,68.9,29.85,SSW,208,0.0,9.0,84,0.00,,,0.01,Wunderground v.1.15,2013-07-26 00:55:00,
2013-07-25 21:05:00,73.4,69.0,29.86,SSW,208,0.0,9.0,86,0.00,,,0.01,Wunderground v.1.15,2013-07-26 01:05:00,
2013-07-25 21:15:00,72.9,67.8,29.87,SSW,208,0.0,9.0,84,0.00,,,0.01,Wunderground v.1.15,2013-07-26 01:15:00,
2013-07-25 21:25:00,72.6,67.8,29.87,SSW,208,0.0,9.0,85,0.00,,,0.01,Wunderground v.1.15,2013-07-26 01:25:00,
2013-07-25 21:35:00,72.5,68.1,29.88,SSW,208,0.0,9.0,86,0.00,,,0.01,Wunderground v.1.15,2013-07-26 01:35:00,
2013-07-25 21:45:00,72.4,68.3,29.89,SSW,208,0.0,9.0,87,0.00,,,0.01,Wunderground v.1.15,2013-07-26 01:45:00,
2013-07-25 21:50:00,72.3,67.9,29.89,SSW,208,0.0,9.0,86,0.00,,,0.01,Wunderground v.1.15,2013-07-26 01:50:00,
2013-07-25 22:00:00,72.0,67.2,29.89,SSW,208,0.0,9.0,85,0.00,,,0.01,Wunderground v.1.15,2013-07-26 02:00:00,
2013-07-25 22:10:00,71.9,67.8,29.90,SSW,208,0.0,9.0,87,0.00,,,0.01,Wunderground v.1.15,2013-07-26 02:10:00,
2013-07-25 22:20:00,72.0,67.9,29.90,SSW,208,0.0,9.0,87,0.00,,,0.01,Wunderground v.1.15,2013-07-26 02:20:00,
2013-07-25 22:30:00,71.8,67.7,29.90,SSW,208,0.0,9.0,87,0.00,,,0.01,Wunderground v.1.15,2013-07-26 02:30:00,
2013-07-25 22:40:00,71.4,67.3,29.90,SSW,208,0.0,9.0,87,0.00,,,0.01,Wunderground v.1.15,2013-07-26 02:40:00,
2013-07-25 22:50:00,71.2,66.8,29.90,SSW,208,0.0,9.0,86,0.00,,,0.01,Wunderground v.1.15,2013-07-26 02:50:00,
2013-07-25 23:00:00,71.2,66.8,29.91,SSW,208,0.0,9.0,86,0.00,,,0.01,Wunderground v.1.15,2013-07-26 03:00:00,
2013-07-25 23:10:00,71.1,66.7,29.91,SSW,208,0.0,9.0,86,0.00,,,0.01,Wunderground v.1.15,2013-07-26 03:10:00,
2013-07-25 23:15:00,71.1,66.7,29.91,SSW,208,0.0,9.0,86,0.00,,,0.01,Wunderground v.1.15,2013-07-26 03:15:00,
2013-07-25 23:25:00,70.9,66.8,29.92,SSW,208,0.0,9.0,87,0.00,,,0.01,Wunderground v.1.15,2013-07-26 03:25:00,
2013-07-25 23:35:00,70.7,67.0,29.92,SSW,208,0.0,9.0,88,0.00,,,0.01,Wunderground v.1.15,2013-07-26 03:35:00,
2013-07-25 23:45:00,70.5,67.1,29.92,SSW,208,0.0,9.0,89,0.00,,,0.01,Wunderground v.1.15,2013-07-26 03:45:00,
2013-07-25 23:55:00,70.1,66.7,29.92,SSW,208,0.0,9.0,89,0.00,,,0.01,Wunderground v.1.15,2013-07-26 03:55:00,